SCP
-0 -0 -0 -0 -0 -0 -0 -0 -0 -0 -0 -0 -0 -0 -0 -0 -0 -0 -0 -0 -0 -0 0 -0 0 0 0 0 0 0 -0 0 0 -0 0 0 0 0 0 -0 -0 -0 -0 -0 -0 -0 -0
-0 -0 -0 -0 -0 -0 -0 -0 -0 -0 -0 -0 -0 -0 -0 -0 -0 -0 -0 -0 -0 -0 -0 -0 0 0 0 0 0 0 -0 0 -0 -0 0 0 0 0 0 0 -0 -0 -0 -0 -0 -0 -0
-0 -0 -0 -0 -0 -0 -0 -0 -0 -0 -0 -0 -0 -0 -0 -0 -0 -0 -0 -0 -0 -0 0 0 0 -0 0 0 0 0 0 0 -0 0 0 0 0 0 0 0 -0 -0 0 0 -0 -0 -0
0 0 -0 -0 -0 -0 -0 -0 -0 -0 -0 -0 -0 -0 -0 -0 -0 -0 -0 -0 -0 0 0 0 0 -0 0 0 0 0 -0 0 0 0 0 0 0 0 0 0 0 0 0 0 -0 -0 -0
0 0 0 0 0 0 -0 -0 -0 -0 -0 -0 -0 -0 -0 -0 -0 -0 -0 -0 -0 0 0 0 0 0 0 0 0 0 0 0 0 0 0 0 0 0 0 0 0 0 0 0 0 -0 -0
0 0 0 0 0 0 0 -0 -0 -0 -0 -0 -0 -0 -0 -0 -0 -0 -0 -0 0 0 0 -0 0 0 0 0 0 0 0 0 0 0 0 0 0 0 0 0 0 0 0 0 0 -0 -0
0 0 0 0 0 0 -0 -0 -0 -0 -0 -0 -0 -0 -0 -0 -0 -0 0 -0 0 0 0 0 0 0 0 0 0 0 0 0 0 0 0 0 0 0 0 0 0 0 0 0 0 0 0
0 0 0 0 -0 0 0 -0 -0 -0 -0 -0 -0 -0 -0 -0 -0 -0 -0 0 0 0 0 0 0 -0 -0 0 0 0 0 0 0 0 0 0 0 0 0 0 0 0 0 0 0 0 0
0 0 0 0 0 0 0 -0 -0 -0 -0 -0 -0 -0 -0 -0 -0 0 0 0 0 0 0 0 0 0 0 0 0 0 0 0 0 0 0 0 0 0 0 0 0 0 0 0 0 0 0
0 0 0 0 0 0 0 0 0 0 0 0 0 0 0 -0 0 0 0 0 0 0 0 0 0 0 0 0 0 0 0 0 0 0 0 0 0 0 0 0 0 0 0 0 0 0 0
0 0 0 0 0 0 0 0 0 0 0 0 0 0 0 0 0 0 0 0 0 -0 0 0 0 0 0 0 0 0 0 0 0 0 0 0 0 0 0 0 0 0 0 0 0 0 0
0 0 0 0 0 0 0 0 0 0 0 0 -0 0 0 0 0 0 0 0 0 0 0 0 0 0 0 0 0 0 0 0 0 0 0 0 0 0 0 0 0 0 0 0 0 0 0
0 0 0 0 0 0 0 0 0 0 0 0 0 0 0 0 0 0 0 0 0 0 0 0 0 0 0 0 0 0 0 0 0 0 0 0 0 0 0 0 0 0 0 0 0 0 0
0 0 0 0 0 0 0 0 0 0 0 0 0 0 0 0 0 0 0 0 0 0 0 0 0 0 0 0 0 0 0 0 0 0 0 0 0 0 0 0 0 0 0 0 0 0 0
0 0 0 0 0 0 0 0 0 0 0 0 0 0 0 0 0 0 0 0 0 0 0 0 0 0 0 0 0 0 0 0 0 0 0 0 0 0 0 0 0 0 0 0 0 0 0
0 0 0 0 0 0 0 0 0 0 0 0 0 0 0 0 0 0 0 0 0 0 0 0 0 0 0 0 0 0 0 0 0 0 0 0 0 0 0 0 0 0 0 0 0 0 0
0 0 0 0 0 0 0 0 0 0 0 0 0 0 0 0 0 0 0 0 0 0 0 0 0 0 0 0 0 0 0 0 0 0 0 0 0 0 0 0 0 0 0 0 0 0 0
0 0 0 0 0 0 0 0 0 0 0 0 0 0 0 0 0 0 0 0 0 0 0 0 0 0 0 0 0 0 0 0 0 0 0 0 0 0 0 0 0 0 0 0 0 0 0
0 0 0 0 0 0 0 0 0 0 0 0 0 0 0 0 0 0 0 0 0 0 0 0 0 0 0 0 0 0 0 0 0 0 0 0 0 0 0 0 0 0 0 0 0 0 0
0 0 0 0 0 0 0 0 0 0 0 0 0 0 0 0 0 0 0 0 0 0 0 0 0 0 0 0 0 0 0 0 0 0 0 0 0 0 0 0 0 0 0 0 0 0 0
0 0 0 0 0 0 0 0 0 0 0 0 0 0 0 0 0 0 0 0 0 0 0 0 0 0 0 0 0 0 0 0 0 0 0 0 0 0 0 0 0 0 0 0 0 0 0
0 0 0 0 0 0 0 0 0 0 0 0 0 0 0 0 0 0 0 0 0 0 0 0 0 0 0 0 0 0 0 0 0 0 0 0 0 0 0 0 0 0 0 0 0 0 0
0 0 0 0 0 0 0 0 0 0 0 0 0 0 0 0 0 0 0 0 0 0 0 0 0 0 0 0 0 0 0 0 0 0 0 0 0 0 0 0 0 0 0 0 0 0 0
0 0 0 0 0 0 0 0 0 0 0 0 0 0 0 0 0 0 0 0 0 0 0 0 0 0 0 0 0 0 0 0 0 0 0 0 0 0 0 0 0 0 0 0 0 0 0
0 0 0 0 0 0 0 0 0 0 0 0 0 0 0 0 0 0 0 0 0 0 0 0 0 0 0 0 0 0 0 0 0 0 0 0 0 0 0 0 0 0 0 0 0 0 0
0 0 0 0 0 0 0 0 0 0 0 0 0 0 0 0 0 0 0 0 0 0 0 0 0 0 0 0 0 0 0 0 0 0 0 0 0 0 0 0 0 0 0 0 0 0 0
0 0 0 0 0 0 0 0 0 0 0 0 0 0 0 0 0 0 0 0 0 0 0 0 0 0 0 0 0 0 0 0 0 0 0 0 0 0 0 0 0 0 0 0 0 0 0
0 0 0 0 0 0 0 0 0 0 0 0 0 0 0 0 0 0 0 0 0 0 0 0 0 0 0 0 0 0 0 0 0 0 0 0 0 0 0 0 0 0 0 0 0 0 0
0 0 0 0 0 0 0 0 0 0 0 0 0 0 0 0 0 0 0 0 0 0 0 0 0 0 0 0 0 0 0 0 0 0 0 0 0 0 0 0 0 0 0 0 0 0 0
Wind_Speed_500mb
26 28 31 34 36 39 40 42 42 43 43 44 43 43 42 40 40 38 32 26 26 21 17 16 17 21 15 4 4 6 6 16 14 18 16 11 8 9 8 6 8 8 1 9 11 19 16
28 31 34 37 39 40 41 43 44 44 45 45 45 45 43 41 39 37 27 28 24 26 15 13 13 17 14 1 3 10 8 19 21 19 14 8 1 3 9 3 2 4 8 11 10 18 14
31 34 36 38 40 41 43 44 44 45 46 47 46 45 44 42 40 36 26 26 26 31 15 11 13 16 13 5 3 7 7 17 19 17 8 3 5 1 7 8 9 10 12 13 12 7 7
33 35 37 38 39 42 42 44 45 46 48 48 48 47 45 43 39 36 28 28 28 32 17 9 11 15 9 6 2 1 7 14 16 17 10 11 7 4 4 20 7 6 6 14 5 9 4
34 36 36 38 38 40 42 44 46 48 50 50 49 48 46 44 38 34 28 29 31 29 10 9 13 8 7 5 7 6 8 13 10 6 11 15 6 5 11 13 9 3 17 9 8 12 8
35 36 37 38 40 42 44 46 48 50 51 51 50 48 46 44 39 32 27 30 27 16 9 18 11 5 10 11 2 4 14 15 8 1 3 2 2 3 5 9 13 16 11 8 8 16 12
35 37 38 41 43 44 45 47 48 49 51 52 51 48 45 42 39 27 22 25 22 5 27 21 22 20 25 13 9 12 19 16 12 6 6 6 8 13 7 2 4 14 9 25 9 11 19
37 40 42 43 45 47 47 47 47 46 47 48 48 47 44 40 35 20 16 12 18 21 26 37 41 46 48 22 7 15 16 13 10 8 8 5 13 8 6 3 4 5 9 13 7 2 20
42 43 45 45 45 44 44 45 45 43 43 43 44 44 42 38 21 27 12 17 30 32 11 19 10 12 21 30 17 18 26 17 8 11 12 14 6 13 11 10 9 5 13 11 10 8 10
41 42 41 42 42 42 40 40 42 42 42 42 43 44 42 37 12 30 6 22 31 18 6 9 5 1 15 16 9 26 30 13 6 16 13 10 9 11 15 11 19 17 29 15 22 17 7
39 39 39 39 39 39 39 40 41 42 42 41 41 43 39 35 33 24 11 23 22 5 8 4 2 5 19 18 7 12 33 22 14 12 10 7 14 18 12 12 26 13 17 27 20 14 8
37 37 38 38 38 38 38 38 40 42 43 41 39 42 41 37 32 14 23 16 1 2 9 4 5 4 11 11 4 9 12 15 10 10 6 12 5 8 7 5 15 21 13 11 8 8 12
36 36 36 37 37 37 37 38 39 40 42 42 39 36 41 34 27 25 13 5 2 7 7 3 2 2 7 12 15 9 16 15 14 10 14 7 9 7 9 8 6 14 13 9 15 13 16
33 34 34 35 36 37 38 38 39 41 42 42 39 34 35 32 17 16 6 3 8 3 9 7 5 8 11 10 7 11 8 18 6 6 4 9 13 14 12 18 11 17 7 9 15 14 18
32 32 33 33 36 37 38 39 40 41 43 42 39 33 27 20 11 12 16 5 9 8 6 11 12 4 3 1 6 10 14 11 17 24 17 10 9 5 6 4 4 9 9 3 8 3 6
32 33 34 35 36 37 37 38 40 40 42 43 39 32 13 21 10 20 4 8 9 8 5 3 5 5 2 4 5 10 14 7 8 22 8 13 9 2 2 5 13 4 16 7 2 10 17
34 35 36 36 37 38 37 37 38 38 39 37 32 17 17 4 12 8 7 10 9 14 9 4 3 6 4 5 4 3 5 2 8 6 10 9 8 11 6 9 10 8 6 5 2 3 19
34 35 35 34 35 37 35 35 34 35 33 29 14 7 2 6 2 3 5 8 4 6 6 7 5 8 8 5 7 5 6 7 13 15 12 9 6 8 22 1 2 4 8 14 15 12 4
33 31 32 31 32 33 33 30 30 31 32 31 21 10 9 10 5 4 7 8 8 6 7 6 5 7 2 2 6 5 8 12 17 16 16 16 6 6 7 5 5 10 12 10 6 3 16
28 28 27 28 28 28 25 25 26 25 22 21 11 5 4 3 5 5 9 7 11 13 11 10 7 6 9 7 10 9 6 7 11 8 12 24 8 11 16 7 4 8 9 15 20 15 24
28 29 29 27 25 24 23 26 24 21 16 13 6 3 4 4 5 8 3 8 9 7 6 5 5 12 8 7 5 10 10 15 16 6 5 4 15 14 15 15 11 16 19 18 24 29 23
32 31 27 24 19 18 19 21 23 20 11 6 3 3 5 7 10 8 3 3 6 12 7 15 14 18 13 15 18 16 15 11 16 3 8 6 15 14 16 19 22 26 25 18 24 22 21
36 31 25 20 17 16 16 17 19 17 14 3 2 3 2 3 4 5 2 3 4 14 7 3 21 20 15 14 15 27 31 35 27 9 5 6 12 13 30 18 19 26 28 34 28 22 24
31 27 19 16 14 14 17 15 15 16 13 7 4 2 3 5 6 6 7 11 21 18 18 34 37 16 13 51 47 33 27 35 32 30 23 7 6 7 22 11 33 18 8 19 34 35 31
32 29 21 19 19 19 17 13 14 16 12 9 9 2 3 6 8 19 26 23 28 26 27 35 45 38 34 27 14 18 17 17 27 31 28 24 9 10 14 24 33 12 10 16 21 31 27
34 30 27 24 25 26 21 19 18 16 16 12 8 6 3 3 7 13 8 14 13 13 16 21 26 30 24 12 15 25 22 22 15 8 4 22 16 19 9 14 34 12 31 35 8 29 26
35 33 29 30 28 20 12 15 21 20 20 17 18 13 12 10 22 12 14 13 10 10 10 15 18 17 7 11 22 28 31 23 36 28 9 9 15 31 26 23 20 11 8 14 22 21 7
36 35 34 30 26 21 16 13 16 21 21 22 24 19 23 14 31 37 31 20 16 21 13 14 17 8 8 10 10 22 18 25 27 32 20 24 14 12 13 16 26 13 9 18 4 3 3
36 36 31 27 26 27 22 17 20 20 21 24 30 28 25 44 23 41 56 58 49 45 29 12 13 13 9 6 4 7 8 6 13 30 19 32 26 20 16 13 6 9 3 7 7 10 10
Wind_Direction_500mb
0 359 358 358 357 357 357 357 356 356 357 356 358 357 357 355 352 352 353 356 343 340 340 344 347 351 355 355 89 92 183 194 195 194 193 176 164 153 170 187 165 227 84 58 91 125 100
351 351 352 352 352 351 352 352 352 353 352 353 354 354 354 352 349 349 350 350 353 344 326 319 327 336 342 278 69 47 153 182 200 208 206 202 267 189 118 86 327 84 111 120 81 103 85
345 346 346 347 346 347 348 349 349 349 348 349 351 351 350 349 347 347 342 344 336 343 322 304 303 313 308 270 95 68 126 175 204 211 208 247 316 248 143 123 120 122 123 124 62 99 98
337 339 341 342 341 343 344 344 345 345 345 346 347 348 348 347 345 343 337 333 330 333 321 288 289 297 273 245 318 124 147 180 196 206 219 286 309 174 109 120 99 147 150 163 122 153 97
332 334 335 336 338 339 340 341 341 342 342 342 344 345 347 345 344 339 332 335 327 324 291 298 292 245 242 184 154 104 154 167 171 258 259 257 275 128 133 143 133 44 170 182 144 179 147
328 329 331 333 335 336 336 337 337 338 338 339 341 343 346 343 343 337 330 334 323 304 285 305 269 237 231 174 193 255 190 190 183 130 146 213 132 176 124 200 191 168 153 187 215 184 207
323 326 327 329 331 332 332 332 334 336 336 337 339 341 345 344 344 340 338 347 356 345 303 257 257 267 270 278 263 166 187 191 199 158 175 25 235 229 234 249 171 127 144 191 207 180 197
320 321 322 325 327 327 329 330 332 334 335 336 338 340 344 346 347 2 357 50 26 315 302 289 279 257 247 248 297 188 176 165 169 177 135 172 237 234 130 106 82 121 134 192 293 116 212
315 316 318 321 323 325 328 330 331 334 335 337 338 339 343 349 353 360 10 18 348 335 275 300 283 250 231 215 217 209 179 171 160 170 188 218 133 139 180 157 165 213 203 182 239 104 182
311 314 318 321 324 326 328 330 330 333 334 338 339 337 343 351 354 352 13 339 336 332 311 281 270 220 174 159 218 215 189 167 156 213 172 230 174 191 180 207 194 204 216 191 174 175 208
312 315 317 321 323 325 327 329 329 330 331 335 337 333 337 343 333 343 338 334 328 355 323 45 88 158 165 183 136 196 206 195 188 173 184 216 180 184 217 227 184 222 180 185 186 182 178
311 313 316 319 321 324 326 328 328 328 328 330 333 327 325 331 331 324 318 331 17 282 254 349 133 168 159 228 196 123 160 186 181 152 215 241 208 223 233 170 187 145 118 105 108 167 228
310 313 316 319 321 324 326 328 328 327 326 326 328 323 314 321 313 308 312 348 202 226 352 359 73 93 238 191 210 173 166 174 191 187 224 225 232 231 185 199 134 186 177 191 220 219 250
308 313 316 319 321 325 328 331 330 330 327 325 324 320 311 311 299 292 208 112 211 259 260 322 327 302 212 180 198 196 174 211 193 165 146 210 232 199 174 218 216 191 213 199 225 232 252
311 315 318 321 324 328 331 333 332 334 332 331 328 323 312 301 301 246 171 180 221 221 322 332 308 285 219 217 201 182 200 219 204 183 202 183 254 278 228 162 220 152 199 77 122 78 242
305 310 315 319 321 324 330 332 333 337 336 337 338 330 310 312 280 166 160 226 228 218 313 334 304 5 272 301 218 199 186 174 196 204 218 198 259 233 65 108 54 193 138 153 196 230 249
303 307 311 316 319 322 329 331 332 337 338 342 338 328 336 19 142 185 209 227 259 250 224 230 281 293 296 308 312 261 210 170 200 114 180 146 220 210 260 210 211 153 188 71 123 251 255
299 302 306 310 314 317 327 331 333 337 344 346 348 308 340 150 284 349 211 208 252 261 161 248 227 234 252 299 295 271 245 251 180 160 165 175 162 234 243 65 315 202 218 189 242 226 235
296 299 303 311 316 320 329 334 337 343 350 357 335 285 282 259 253 243 290 282 263 249 214 185 227 215 175 249 317 256 272 283 233 183 178 180 193 232 226 170 155 223 194 173 110 87 207
294 299 303 306 312 318 330 334 339 343 352 354 341 316 344 122 70 345 353 280 262 274 253 222 236 252 268 256 235 273 263 281 332 246 214 154 159 198 234 236 159 235 226 216 207 226 243
293 297 302 303 305 317 330 340 344 345 347 355 356 27 337 336 89 358 310 313 304 283 281 262 216 215 178 217 232 230 256 292 278 215 153 230 209 194 241 248 224 240 235 206 222 247 241
299 293 294 297 299 304 317 330 332 341 354 334 357 34 347 291 305 303 225 208 317 327 314 284 277 307 253 241 245 276 293 281 264 223 217 179 239 196 234 224 229 245 240 225 226 238 250
293 282 282 285 291 302 309 321 331 341 360 44 26 4 314 282 314 291 270 310 49 1 279 0 5 337 309 274 313 285 274 267 259 286 270 244 199 183 240 227 235 249 224 230 234 231 238
286 278 264 277 287 296 305 313 328 340 359 2 345 269 201 259 240 235 307 316 296 298 281 294 311 307 309 310 309 287 253 250 249 246 227 224 209 226 247 183 241 248 198 241 243 246 239
274 273 262 264 289 298 298 288 305 304 306 325 354 342 210 264 275 276 270 278 290 281 270 271 281 278 287 308 296 281 260 259 242 238 222 215 202 231 233 231 254 266 186 199 207 240 239
260 266 268 255 264 274 282 286 286 282 276 271 271 300 257 305 242 288 310 283 284 283 284 261 276 291 283 253 246 244 240 253 232 214 292 199 227 235 187 233 250 258 232 226 223 258 248
255 256 257 259 259 255 267 288 277 267 264 258 251 259 254 227 269 281 263 290 291 283 277 302 331 324 296 239 239 244 247 245 242 242 208 179 209 226 230 243 255 228 230 163 219 272 343
249 251 249 249 246 241 242 268 282 263 253 256 262 265 254 233 269 271 265 268 267 247 259 324 327 209 259 252 245 237 249 234 242 235 216 220 198 200 213 236 258 185 174 225 331 354 309
247 245 238 244 244 239 250 267 263 262 257 247 255 263 271 241 252 273 278 268 260 249 260 256 256 312 292 295 316 300 261 251 258 242 225 240 235 243 214 237 124 165 146 297 272 277 295
Wind_Speed_850mb
26 28 31 34 36 39 40 42 42 43 43 44 43 43 42 40 40 38 32 26 26 21 17 16 17 21 15 4 4 6 6 16 14 18 16 11 8 9 8 6 8 8 1 9 11 19 16
28 31 34 37 39 40 41 43 44 44 45 45 45 45 43 41 39 37 27 28 24 26 15 13 13 17 14 1 3 10 8 19 21 19 14 8 1 3 9 3 2 4 8 11 10 18 14
31 34 36 38 40 41 43 44 44 45 46 47 46 45 44 42 40 36 26 26 26 31 15 11 13 16 13 5 3 7 7 17 19 17 8 3 5 1 7 8 9 10 12 13 12 7 7
33 35 37 38 39 42 42 44 45 46 48 48 48 47 45 43 39 36 28 28 28 32 17 9 11 15 9 6 2 1 7 14 16 17 10 11 7 4 4 20 7 6 6 14 5 9 4
34 36 36 38 38 40 42 44 46 48 50 50 49 48 46 44 38 34 28 29 31 29 10 9 13 8 7 5 7 6 8 13 10 6 11 15 6 5 11 13 9 3 17 9 8 12 8
35 36 37 38 40 42 44 46 48 50 51 51 50 48 46 44 39 32 27 30 27 16 9 18 11 5 10 11 2 4 14 15 8 1 3 2 2 3 5 9 13 16 11 8 8 16 12
35 37 38 41 43 44 45 47 48 49 51 52 51 48 45 42 39 27 22 25 22 5 27 21 22 20 25 13 9 12 19 16 12 6 6 6 8 13 7 2 4 14 9 25 9 11 19
37 40 42 43 45 47 47 47 47 46 47 48 48 47 44 40 35 20 16 12 18 21 26 37 41 46 48 22 7 15 16 13 10 8 8 5 13 8 6 3 4 5 9 13 7 2 20
42 43 45 45 45 44 44 45 45 43 43 43 44 44 42 38 21 27 12 17 30 32 11 19 10 12 21 30 17 18 26 17 8 11 12 14 6 13 11 10 9 5 13 11 10 8 10
41 42 41 42 42 42 40 40 42 42 42 42 43 44 42 37 12 30 6 22 31 18 6 9 5 1 15 16 9 26 30 13 6 16 13 10 9 11 15 11 19 17 29 15 22 17 7
39 39 39 39 39 39 39 40 41 42 42 41 41 43 39 35 33 24 11 23 22 5 8 4 2 5 19 18 7 12 33 22 14 12 10 7 14 18 12 12 26 13 17 27 20 14 8
37 37 38 38 38 38 38 38 40 42 43 41 39 42 41 37 32 14 23 16 1 2 9 4 5 4 11 11 4 9 12 15 10 10 6 12 5 8 7 5 15 21 13 11 8 8 12
36 36 36 37 37 37 37 38 39 40 42 42 39 36 41 34 27 25 13 5 2 7 7 3 2 2 7 12 15 9 16 15 14 10 14 7 9 7 9 8 6 14 13 9 15 13 16
33 34 34 35 36 37 38 38 39 41 42 42 39 34 35 32 17 16 6 3 8 3 9 7 5 8 11 10 7 11 8 18 6 6 4 9 13 14 12 18 11 17 7 9 15 14 18
32 32 33 33 36 37 38 39 40 41 43 42 39 33 27 20 11 12 16 5 9 8 6 11 12 4 3 1 6 10 14 11 17 24 17 10 9 5 6 4 4 9 9 3 8 3 6
32 33 34 35 36 37 37 38 40 40 42 43 39 32 13 21 10 20 4 8 9 8 5 3 5 5 2 4 5 10 14 7 8 22 8 13 9 2 2 5 13 4 16 7 2 10 17
34 35 36 36 37 38 37 37 38 38 39 37 32 17 17 4 12 8 7 10 9 14 9 4 3 6 4 5 4 3 5 2 8 6 10 9 8 11 6 9 10 8 6 5 2 3 19
34 35 35 34 35 37 35 35 34 35 33 29 14 7 2 6 2 3 5 8 4 6 6 7 5 8 8 5 7 5 6 7 13 15 12 9 6 8 22 1 2 4 8 14 15 12 4
33 31 32 31 32 33 33 30 30 31 32 31 21 10 9 10 5 4 7 8 8 6 7 6 5 7 2 2 6 5 8 12 17 16 16 16 6 6 7 5 5 10 12 10 6 3 16
28 28 27 28 28 28 25 25 26 25 22 21 11 5 4 3 5 5 9 7 11 13 11 10 7 6 9 7 10 9 6 7 11 8 12 24 8 11 16 7 4 8 9 15 20 15 24
28 29 29 27 25 24 23 26 24 21 16 13 6 3 4 4 5 8 3 8 9 7 6 5 5 12 8 7 5 10 10 15 16 6 5 4 15 14 15 15 11 16 19 18 24 29 23
32 31 27 24 19 18 19 21 23 20 11 6 3 3 5 7 10 8 3 3 6 12 7 15 14 18 13 15 18 16 15 11 16 3 8 6 15 14 16 19 22 26 25 18 24 22 21
36 31 25 20 17 16 16 17 19 17 14 3 2 3 2 3 4 5 2 3 4 14 7 3 21 20 15 14 15 27 31 35 27 9 5 6 12 13 30 18 19 26 28 34 28 22 24
31 27 19 16 14 14 17 15 15 16 13 7 4 2 3 5 6 6 7 11 21 18 18 34 37 16 13 51 47 33 27 35 32 30 23 7 6 7 22 11 33 18 8 19 34 35 31
32 29 21 19 19 19 17 13 14 16 12 9 9 2 3 6 8 19 26 23 28 26 27 35 45 38 34 27 14 18 17 17 27 31 28 24 9 10 14 24 33 12 10 16 21 31 27
34 30 27 24 25 26 21 19 18 16 16 12 8 6 3 3 7 13 8 14 13 13 16 21 26 30 24 12 15 25 22 22 15 8 4 22 16 19 9 14 34 12 31 35 8 29 26
35 33 29 30 28 20 12 15 21 20 20 17 18 13 12 10 22 12 14 13 10 10 10 15 18 17 7 11 22 28 31 23 36 28 9 9 15 31 26 23 20 11 8 14 22 21 7
36 35 34 30 26 21 16 13 16 21 21 22 24 19 23 14 31 37 31 20 16 21 13 14 17 8 8 10 10 22 18 25 27 32 20 24 14 12 13 16 26 13 9 18 4 3 3
36 36 31 27 26 27 22 17 20 20 21 24 30 28 25 44 23 41 56 58 49 45 29 12 13 13 9 6 4 7 8 6 13 30 19 32 26 20 16 13 6 9 3 7 7 10 10
Wind_Direction_850mb
0 359 358 358 357 357 357 357 356 356 357 356 358 357 357 355 352 352 353 356 343 340 340 344 347 351 355 355 89 92 183 194 195 194 193 176 164 153 170 187 165 227 84 58 91 125 100
351 351 352 352 352 351 352 352 352 353 352 353 354 354 354 352 349 349 350 350 353 344 326 319 327 336 342 278 69 47 153 182 200 208 206 202 267 189 118 86 327 84 111 120 81 103 85
345 346 346 347 346 347 348 349 349 349 348 349 351 351 350 349 347 347 342 344 336 343 322 304 303 313 308 270 95 68 126 175 204 211 208 247 316 248 143 123 120 122 123 124 62 99 98
337 339 341 342 341 343 344 344 345 345 345 346 347 348 348 347 345 343 337 333 330 333 321 288 289 297 273 245 318 124 147 180 196 206 219 286 309 174 109 120 99 147 150 163 122 153 97
332 334 335 336 338 339 340 341 341 342 342 342 344 345 347 345 344 339 332 335 327 324 291 298 292 245 242 184 154 104 154 167 171 258 259 257 275 128 133 143 133 44 170 182 144 179 147
328 329 331 333 335 336 336 337 337 338 338 339 341 343 346 343 343 337 330 334 323 304 285 305 269 237 231 174 193 255 190 190 183 130 146 213 132 176 124 200 191 168 153 187 215 184 207
323 326 327 329 331 332 332 332 334 336 336 337 339 341 345 344 344 340 338 347 356 345 303 257 257 267 270 278 263 166 187 191 199 158 175 25 235 229 234 249 171 127 144 191 207 180 197
320 321 322 325 327 327 329 330 332 334 335 336 338 340 344 346 347 2 357 50 26 315 302 289 279 257 247 248 297 188 176 165 169 177 135 172 237 234 130 106 82 121 134 192 293 116 212
315 316 318 321 323 325 328 330 331 334 335 337 338 339 343 349 353 360 10 18 348 335 275 300 283 250 231 215 217 209 179 171 160 170 188 218 133 139 180 157 165 213 203 182 239 104 182
311 314 318 321 324 326 328 330 330 333 334 338 339 337 343 351 354 352 13 339 336 332 311 281 270 220 174 159 218 215 189 167 156 213 172 230 174 191 180 207 194 204 216 191 174 175 208
312 315 317 321 323 325 327 329 329 330 331 335 337 333 337 343 333 343 338 334 328 355 323 45 88 158 165 183 136 196 206 195 188 173 184 216 180 184 217 227 184 222 180 185 186 182 178
311 313 316 319 321 324 326 328 328 328 328 330 333 327 325 331 331 324 318 331 17 282 254 349 133 168 159 228 196 123 160 186 181 152 215 241 208 223 233 170 187 145 118 105 108 167 228
310 313 316 319 321 324 326 328 328 327 326 326 328 323 314 321 313 308 312 348 202 226 352 359 73 93 238 191 210 173 166 174 191 187 224 225 232 231 185 199 134 186 177 191 220 219 250
308 313 316 319 321 325 328 331 330 330 327 325 324 320 311 311 299 292 208 112 211 259 260 322 327 302 212 180 198 196 174 211 193 165 146 210 232 199 174 218 216 191 213 199 225 232 252
311 315 318 321 324 328 331 333 332 334 332 331 328 323 312 301 301 246 171 180 221 221 322 332 308 285 219 217 201 182 200 219 204 183 202 183 254 278 228 162 220 152 199 77 122 78 242
305 310 315 319 321 324 330 332 333 337 336 337 338 330 310 312 280 166 160 226 228 218 313 334 304 5 272 301 218 199 186 174 196 204 218 198 259 233 65 108 54 193 138 153 196 230 249
303 307 311 316 319 322 329 331 332 337 338 342 338 328 336 19 142 185 209 227 259 250 224 230 281 293 296 308 312 261 210 170 200 114 180 146 220 210 260 210 211 153 188 71 123 251 255
299 302 306 310 314 317 327 331 333 337 344 346 348 308 340 150 284 349 211 208 252 261 161 248 227 234 252 299 295 271 245 251 180 160 165 175 162 234 243 65 315 202 218 189 242 226 235
296 299 303 311 316 320 329 334 337 343 350 357 335 285 282 259 253 243 290 282 263 249 214 185 227 215 175 249 317 256 272 283 233 183 178 180 193 232 226 170 155 223 194 173 110 87 207
294 299 303 306 312 318 330 334 339 343 352 354 341 316 344 122 70 345 353 280 262 274 253 222 236 252 268 256 235 273 263 281 332 246 214 154 159 198 234 236 159 235 226 216 207 226 243
293 297 302 303 305 317 330 340 344 345 347 355 356 27 337 336 89 358 310 313 304 283 281 262 216 215 178 217 232 230 256 292 278 215 153 230 209 194 241 248 224 240 235 206 222 247 241
299 293 294 297 299 304 317 330 332 341 354 334 357 34 347 291 305 303 225 208 317 327 314 284 277 307 253 241 245 276 293 281 264 223 217 179 239 196 234 224 229 245 240 225 226 238 250
293 282 282 285 291 302 309 321 331 341 360 44 26 4 314 282 314 291 270 310 49 1 279 0 5 337 309 274 313 285 274 267 259 286 270 244 199 183 240 227 235 249 224 230 234 231 238
286 278 264 277 287 296 305 313 328 340 359 2 345 269 201 259 240 235 307 316 296 298 281 294 311 307 309 310 309 287 253 250 249 246 227 224 209 226 247 183 241 248 198 241 243 246 239
274 273 262 264 289 298 298 288 305 304 306 325 354 342 210 264 275 276 270 278 290 281 270 271 281 278 287 308 296 281 260 259 242 238 222 215 202 231 233 231 254 266 186 199 207 240 239
260 266 268 255 264 274 282 286 286 282 276 271 271 300 257 305 242 288 310 283 284 283 284 261 276 291 283 253 246 244 240 253 232 214 292 199 227 235 187 233 250 258 232 226 223 258 248
255 256 257 259 259 255 267 288 277 267 264 258 251 259 254 227 269 281 263 290 291 283 277 302 331 324 296 239 239 244 247 245 242 242 208 179 209 226 230 243 255 228 230 163 219 272 343
249 251 249 249 246 241 242 268 282 263 253 256 262 265 254 233 269 271 265 268 267 247 259 324 327 209 259 252 245 237 249 234 242 235 216 220 198 200 213 236 258 185 174 225 331 354 309
247 245 238 244 244 239 250 267 263 262 257 247 255 263 271 241 252 273 278 268 260 249 260 256 256 312 292 295 316 300 261 251 258 242 225 240 235 243 214 237 124 165 146 297 272 277 295